�N����,����,�~����,�C��,���x,�C��,����,���ϕ���,�ő�u�ԕ���,�ő厞����,���˗�,�I�_���x,�n�����x,�ő啗���N��,DTYPE
"21/01/05","00:10",0.0,0.5,91.7,1020.4,278.3,0.7,2.5,328.3,0.00,-0.7,5.2,"00:02:08",1
"21/01/05","00:20",0.0,0.5,91.9,1020.4,152.7,0.3,1.1,345.1,0.00,-0.6,5.1,"00:15:28",1
"21/01/05","00:30",0.0,0.6,92.0,1020.4,295.2,1.7,3.4,308.5,0.00,-0.5,5.0,"00:26:08",1
"21/01/05","00:40",0.0,0.4,92.0,1020.4,299.2,1.1,2.7,316.1,0.00,-0.7,5.1,"00:39:04",1
"21/01/05","00:50",0.0,0.3,92.3,1020.1,299.4,1.0,2.1,334.6,0.00,-0.8,5.0,"00:47:20",1
"21/01/05","01:00",0.0,0.4,92.4,1020.1,217.4,0.6,1.3,336.5,0.00,-0.6,5.0,"00:50:40",1
"21/01/05","01:10",0.0,0.5,92.5,1020.1,314.5,1.5,2.9,315.6,0.00,-0.5,5.0,"01:06:08",1
"21/01/05","01:20",0.0,0.5,92.5,1020.6,303.9,1.5,2.4,337.2,0.00,-0.5,4.8,"01:12:08",1
"21/01/05","01:30",0.0,0.3,92.7,1020.1,297.2,1.2,1.9,319.4,0.00,-0.7,4.9,"01:27:44",1
"21/01/05","01:40",0.0,0.3,92.8,1020.4,292.8,0.7,1.7,272.8,0.00,-0.7,5.1,"01:31:52",1
"21/01/05","01:50",0.0,0.5,92.8,1020.4,326.3,1.3,2.6,322.5,0.00,-0.5,4.8,"01:47:52",1
"21/01/05","02:00",0.0,0.2,93.0,1020.1,324.3,2.1,2.5,331.4,0.00,-0.8,5.0,"01:50:08",1
"21/01/05","02:10",0.0,0.3,93.2,1020.6,321.1,2.2,2.7,323.0,0.00,-0.6,4.9,"02:05:20",1
"21/01/05","02:20",0.0,0.3,93.3,1020.1,300.2,1.6,2.4,314.4,0.00,-0.6,4.9,"02:19:04",1
"21/01/05","02:30",0.0,0.5,93.4,1020.1,290.8,1.3,2.2,303.5,0.00,-0.4,5.0,"02:20:16",1
"21/01/05","02:40",0.0,0.4,93.5,1020.1,287.9,0.8,1.4,315.2,0.00,-0.5,4.9,"02:34:08",1
"21/01/05","02:50",0.0,0.4,93.6,1020.4,285.4,0.6,1.2,295.7,0.00,-0.5,4.8,"02:42:32",1
"21/01/05","03:00",0.0,0.7,93.7,1019.9,310.8,1.0,2.6,328.9,0.00,-0.2,4.8,"02:58:16",1
"21/01/05","03:10",0.0,0.4,93.8,1019.7,314.5,2.0,2.5,338.6,0.00,-0.4,4.9,"03:00:08",1
"21/01/05","03:20",0.0,0.4,94.0,1019.4,320.6,2.0,2.6,323.8,0.00,-0.4,4.8,"03:12:32",1
"21/01/05","03:30",0.0,0.5,94.1,1019.2,273.6,1.3,2.0,321.1,0.00,-0.3,4.8,"03:20:24",1
"21/01/05","03:40",0.0,0.5,94.1,1019.4,298.8,1.7,2.0,315.8,0.00,-0.3,4.9,"03:36:16",1
"21/01/05","03:50",0.0,0.6,94.2,1019.4,309.7,1.8,2.4,319.8,0.00,-0.2,4.9,"03:44:16",1
"21/01/05","04:00",0.0,0.5,94.3,1018.7,316.5,2.2,2.5,323.5,0.00,-0.3,4.9,"03:57:20",1
"21/01/05","04:10",0.0,0.6,94.5,1018.7,310.4,2.1,2.8,320.5,0.00,-0.1,4.8,"04:06:00",1
"21/01/05","04:20",0.0,0.7,94.5,1019.0,285.6,1.7,1.9,293.9,0.00,0.0,5.0,"04:12:24",1
"21/01/05","04:30",0.0,0.8,94.6,1019.0,301.4,1.8,2.4,318.8,0.00,0.1,5.2,"04:27:52",1
"21/01/05","04:40",0.0,0.7,94.7,1018.7,313.6,2.0,2.6,327.2,0.00,0.0,5.0,"04:30:02",1
"21/01/05","04:50",0.0,0.5,94.8,1018.7,313.3,2.0,2.7,326.8,0.00,-0.2,4.9,"04:47:52",1
"21/01/05","05:00",0.0,0.5,94.9,1019.0,297.3,1.2,2.0,310.0,0.00,-0.2,4.9,"04:56:56",1
"21/01/05","05:10",0.0,0.5,95.0,1018.5,316.7,2.2,3.1,326.0,0.00,-0.2,5.0,"05:05:44",1
"21/01/05","05:20",0.0,0.6,95.1,1018.7,306.5,2.1,2.7,314.0,0.00,-0.1,5.0,"05:15:44",1
"21/01/05","05:30",0.0,0.8,95.1,1018.2,299.7,2.3,2.8,302.1,0.00,0.1,4.7,"05:24:48",1
"21/01/05","05:40",0.0,1.0,95.1,1018.0,318.5,2.2,3.6,323.2,0.00,0.3,4.9,"05:32:00",1
"21/01/05","05:50",0.0,0.7,95.1,1018.7,303.9,1.6,2.5,319.9,0.00,0.0,4.8,"05:41:52",1
"21/01/05","06:00",0.0,0.8,95.4,1018.7,291.1,1.8,2.7,309.5,0.00,0.2,5.0,"05:58:00",1
"21/01/05","06:10",0.0,1.1,95.4,1018.7,269.3,1.7,2.9,312.3,0.00,0.5,4.8,"06:00:02",1
"21/01/05","06:20",0.0,0.8,95.3,1018.5,318.0,2.1,3.4,317.2,0.00,0.2,5.0,"06:10:16",1
"21/01/05","06:30",0.0,0.6,95.4,1018.7,316.9,1.7,3.2,312.4,0.00,0.0,4.9,"06:24:08",1
"21/01/05","06:40",0.0,0.5,95.5,1019.0,287.2,1.2,1.8,305.9,0.00,-0.1,5.0,"06:38:48",1
"21/01/05","06:50",0.0,0.7,95.6,1019.2,307.1,2.0,2.7,331.0,0.00,0.1,5.0,"06:46:56",1
"21/01/05","07:00",0.0,0.8,95.6,1018.7,322.0,2.0,2.5,321.1,0.00,0.2,4.8,"06:59:28",1
"21/01/05","07:10",0.0,1.2,95.6,1018.7,318.9,3.1,3.9,318.6,0.00,0.6,5.0,"07:07:04",1
"21/01/05","07:20",0.0,1.3,95.4,1018.5,283.5,2.2,3.3,306.8,0.00,0.7,4.9,"07:11:04",1
"21/01/05","07:30",0.0,1.3,95.4,1018.7,297.4,2.6,3.6,308.1,0.00,0.7,4.9,"07:29:04",1
"21/01/05","07:40",0.0,1.5,95.3,1018.7,321.8,2.2,4.2,321.3,0.00,0.9,4.8,"07:33:36",1
"21/01/05","07:50",0.0,1.3,95.4,1018.5,303.2,1.6,2.7,318.0,0.00,0.7,4.9,"07:40:32",1
"21/01/05","08:00",0.0,1.3,95.4,1019.2,287.5,1.5,2.4,318.8,0.00,0.7,5.0,"07:59:44",1
"21/01/05","08:10",0.0,1.4,95.4,1019.0,328.3,2.2,3.3,337.9,0.01,0.8,4.9,"08:01:36",1
"21/01/05","08:20",0.0,1.5,95.4,1018.7,312.9,2.0,2.4,340.7,0.01,0.9,5.1,"08:11:04",1
"21/01/05","08:30",0.0,1.6,95.3,1018.5,289.0,1.6,2.0,294.2,0.01,1.0,5.2,"08:28:16",1
"21/01/05","08:40",0.0,1.8,95.4,1018.7,299.1,1.8,2.5,320.2,0.03,1.2,5.1,"08:34:08",1
"21/01/05","08:50",0.0,2.1,95.3,1018.5,266.0,1.2,1.8,273.9,0.05,1.5,5.2,"08:49:04",1
"21/01/05","09:00",0.0,2.5,95.1,1018.5,255.9,1.0,1.7,264.4,0.05,1.8,5.2,"08:51:12",1
"21/01/05","09:10",0.0,2.5,94.8,1018.5,222.9,1.3,2.2,231.5,0.05,1.8,5.1,"09:01:04",1
"21/01/05","09:20",0.0,2.8,94.7,1018.7,244.9,1.3,1.9,189.2,0.07,2.1,5.3,"09:11:12",1
"21/01/05","09:30",0.0,3.1,94.4,1018.7,308.4,1.8,3.5,341.6,0.09,2.3,5.4,"09:28:56",1
"21/01/05","09:40",0.0,3.2,93.9,1019.0,335.2,1.7,3.4,340.0,0.08,2.4,5.6,"09:32:24",1
"21/01/05","09:50",0.0,3.3,93.5,1019.2,326.8,2.3,3.3,326.1,0.09,2.4,5.5,"09:41:12",1
"21/01/05","10:00",0.0,3.7,93.1,1019.4,314.8,1.7,3.2,323.7,0.10,2.7,5.7,"09:59:36",1
"21/01/05","10:10",0.0,4.3,92.3,1019.4,303.1,1.7,2.9,319.3,0.12,3.2,5.6,"10:00:16",1
"21/01/05","10:20",0.0,4.4,91.4,1019.7,257.2,1.0,1.2,268.2,0.12,3.2,5.9,"10:16:14",1
"21/01/05","10:30",0.0,4.7,90.2,1019.4,210.2,0.7,1.4,214.7,0.13,3.3,5.7,"10:23:12",1
"21/01/05","10:40",0.0,4.6,88.7,1019.0,182.8,1.0,1.9,195.0,0.12,2.9,5.7,"10:34:18",1
"21/01/05","10:50",0.0,4.8,87.1,1019.0,212.0,0.6,1.2,119.5,0.12,2.9,5.9,"10:49:22",1
"21/01/05","11:00",0.0,5.0,85.6,1018.7,173.9,0.6,1.4,109.7,0.10,2.8,6.1,"10:50:56",1
"21/01/05","11:10",0.0,5.2,84.1,1019.0,273.6,0.8,2.0,336.2,0.10,2.8,6.1,"11:09:22",1
"21/01/05","11:20",0.0,5.7,82.9,1019.0,334.1,1.3,2.5,326.8,0.23,3.1,6.4,"11:17:28",1
"21/01/05","11:30",0.0,6.2,80.5,1019.2,291.2,1.0,2.1,249.8,0.29,3.1,6.4,"11:26:34",1
"21/01/05","11:40",0.0,7.1,77.3,1019.2,262.8,1.1,2.2,319.6,0.35,3.4,6.6,"11:34:06",1
"21/01/05","11:50",0.0,7.9,73.5,1018.7,246.8,1.1,1.8,274.2,0.44,3.5,6.8,"11:44:26",1
"21/01/05","12:00",0.0,8.2,69.8,1018.5,227.6,1.0,2.1,114.2,0.38,3.1,7.1,"11:55:20",1
"21/01/05","12:10",0.0,8.1,68.6,1017.8,207.2,1.6,3.4,190.2,0.38,2.7,7.3,"12:07:44",1
"21/01/05","12:20",0.0,8.5,68.1,1017.8,205.3,1.8,3.3,206.5,0.40,3.0,7.5,"12:11:44",1
"21/01/05","12:30",0.0,8.8,66.7,1017.5,200.6,1.3,3.1,158.6,0.38,3.0,7.7,"12:25:44",1
"21/01/05","12:40",0.0,8.4,65.8,1017.3,136.4,1.7,3.3,166.7,0.34,2.4,8.0,"12:32:48",1
"21/01/05","12:50",0.0,8.0,64.7,1017.1,157.9,1.1,4.0,125.1,0.22,1.8,8.2,"12:43:28",1
"21/01/05","13:00",0.0,7.7,67.3,1016.4,211.2,1.6,3.2,203.4,0.15,2.1,8.1,"12:54:08",1
"21/01/05","13:10",0.0,8.0,67.2,1016.6,235.6,1.1,2.4,216.1,0.20,2.3,8.2,"13:05:04",1
"21/01/05","13:20",0.0,8.3,66.0,1016.1,225.9,1.1,1.9,241.4,0.19,2.4,8.1,"13:12:56",1
"21/01/05","13:30",0.0,8.3,65.7,1016.1,230.6,1.3,2.8,211.3,0.16,2.3,8.3,"13:25:36",1
"21/01/05","13:40",0.0,8.2,65.9,1015.9,231.4,1.2,2.7,246.9,0.14,2.3,8.2,"13:33:52",1
"21/01/05","13:50",0.0,8.3,65.8,1016.4,231.9,1.0,2.4,249.3,0.14,2.3,8.1,"13:46:08",1
"21/01/05","14:00",0.0,8.2,65.2,1016.6,207.4,1.1,2.2,187.9,0.14,2.1,8.3,"13:58:24",1
"21/01/05","14:10",0.0,8.2,65.5,1016.1,204.4,1.8,4.0,200.6,0.14,2.2,8.2,"14:04:08",1
"21/01/05","14:20",0.0,8.0,65.4,1016.1,181.7,1.8,3.3,182.7,0.12,2.0,8.2,"14:11:44",1
"21/01/05","14:30",0.0,8.2,65.8,1016.4,155.2,1.2,2.6,125.2,0.12,2.2,8.3,"14:21:28",1
"21/01/05","14:40",0.0,8.2,65.6,1016.1,180.0,1.6,3.1,189.0,0.11,2.2,8.4,"14:35:36",1
"21/01/05","14:50",0.0,8.3,64.9,1016.8,150.6,1.3,2.7,136.1,0.10,2.1,8.3,"14:48:00",1
"21/01/05","15:00",0.0,8.3,64.7,1016.8,188.2,1.1,2.5,153.6,0.08,2.1,7.9,"14:58:00",1
"21/01/05","15:10",0.0,8.3,64.7,1016.8,149.7,1.0,2.4,125.2,0.06,2.1,8.2,"15:04:48",1
"21/01/05","15:20",0.0,8.3,64.7,1016.1,125.0,0.7,1.8,118.6,0.05,2.1,8.2,"15:16:24",1
"21/01/05","15:30",0.0,8.3,64.7,1016.1,207.9,0.5,1.1,170.6,0.06,2.1,8.2,"15:28:48",1
"21/01/05","15:40",0.0,8.2,64.8,1016.1,235.7,1.0,2.0,250.7,0.05,2.0,8.0,"15:32:56",1
"21/01/05","15:50",0.0,8.1,64.6,1015.9,281.6,0.6,1.0,286.2,0.03,1.9,8.1,"15:44:32",1
"21/01/05","16:00",0.0,8.1,65.1,1015.6,282.3,0.8,1.3,288.6,0.02,2.0,8.0,"15:57:44",1
"21/01/05","16:10",0.0,8.1,65.7,1016.1,312.9,1.5,2.2,318.3,0.01,2.1,8.0,"16:06:56",1
"21/01/05","16:20",0.0,7.9,67.5,1015.6,323.1,1.7,2.4,318.7,0.00,2.3,8.0,"16:19:04",1
"21/01/05","16:30",0.0,7.6,69.0,1015.9,318.5,1.7,2.4,321.3,0.00,2.3,8.0,"16:25:28",1
"21/01/05","16:40",0.0,7.5,70.6,1015.9,315.1,2.2,3.1,323.6,0.00,2.5,7.9,"16:37:36",1
"21/01/05","16:50",0.0,7.2,71.9,1015.6,315.5,2.5,3.2,320.8,0.00,2.5,8.0,"16:45:12",1
"21/01/05","17:00",0.0,7.0,72.5,1015.6,294.0,1.6,2.4,319.3,0.00,2.4,8.1,"16:50:48",1
"21/01/05","17:10",0.0,6.8,73.3,1015.2,296.5,1.7,2.2,306.5,0.00,2.4,8.2,"17:09:58",1
"21/01/05","17:20",0.0,6.6,74.1,1014.9,321.2,1.8,3.2,318.9,0.00,2.4,7.7,"17:14:40",1
"21/01/05","17:30",0.0,6.2,74.9,1014.9,316.6,2.0,2.6,315.2,0.00,2.1,7.6,"17:24:08",1
"21/01/05","17:40",0.0,5.9,75.7,1015.2,299.0,1.6,2.5,318.9,0.00,2.0,7.4,"17:31:04",1
"21/01/05","17:50",0.0,5.8,76.5,1014.9,304.6,1.6,1.8,308.0,0.00,2.0,7.7,"17:47:12",1
"21/01/05","18:00",0.0,5.7,77.3,1014.9,306.6,1.7,2.2,309.1,0.00,2.1,7.5,"17:51:04",1
"21/01/05","18:10",0.0,5.5,78.0,1014.5,308.0,1.2,2.2,318.2,0.00,2.0,7.5,"18:04:16",1
"21/01/05","18:20",0.0,5.4,79.1,1014.2,302.4,1.5,3.2,319.8,0.00,2.1,7.4,"18:13:52",1
"21/01/05","18:30",0.0,5.1,80.0,1013.8,283.9,1.3,2.6,315.2,0.00,2.0,7.3,"18:21:04",1
"21/01/05","18:40",0.0,5.1,80.9,1013.5,300.4,1.3,2.1,298.9,0.00,2.1,7.5,"18:34:40",1
"21/01/05","18:50",0.0,5.4,81.7,1014.0,262.7,1.6,2.0,252.7,0.00,2.6,7.3,"18:44:56",1
"21/01/05","19:00",0.0,5.5,82.1,1014.5,274.6,1.1,2.1,316.5,0.00,2.7,7.4,"18:58:48",1
"21/01/05","19:10",0.0,5.4,82.5,1014.5,315.5,1.5,2.8,340.7,0.00,2.7,7.2,"19:05:44",1
"21/01/05","19:20",0.0,5.2,82.9,1014.5,326.1,1.6,2.6,320.3,0.00,2.6,7.2,"19:12:56",1
"21/01/05","19:30",0.0,4.7,83.2,1014.7,295.9,1.5,2.6,322.5,0.00,2.1,7.2,"19:22:08",1
"21/01/05","19:40",0.0,4.5,83.8,1014.5,311.3,1.6,1.9,314.4,0.00,2.0,7.2,"19:32:32",1
"21/01/05","19:50",0.0,4.7,84.4,1014.5,323.7,1.7,3.1,323.3,0.00,2.3,7.2,"19:49:44",1
"21/01/05","20:00",0.0,4.7,84.9,1015.4,319.2,2.2,2.9,315.6,0.00,2.4,7.0,"19:53:52",1
"21/01/05","20:10",0.0,4.9,85.3,1014.7,318.8,1.6,2.2,315.3,0.00,2.7,7.1,"20:00:40",1
"21/01/05","20:20",0.0,5.0,85.2,1014.5,299.7,1.1,2.2,318.9,0.00,2.8,7.0,"20:10:56",1
"21/01/05","20:30",0.0,4.9,85.5,1014.0,269.3,1.1,1.9,249.0,0.00,2.7,7.0,"20:23:28",1
"21/01/05","20:40",0.0,5.0,85.5,1014.5,309.7,0.8,1.7,310.3,0.00,2.8,7.0,"20:32:00",1
"21/01/05","20:50",0.0,4.7,85.5,1014.2,303.9,1.5,2.0,318.2,0.00,2.5,6.8,"20:49:04",1
"21/01/05","21:00",0.0,4.3,85.6,1014.2,319.2,2.0,2.8,320.7,0.00,2.1,6.9,"20:50:24",1
"21/01/05","21:10",0.0,3.8,86.0,1014.2,291.0,1.6,2.5,268.3,0.00,1.7,6.7,"21:09:20",1
"21/01/05","21:20",0.0,4.3,86.3,1013.8,278.9,2.5,3.7,265.3,0.00,2.3,6.7,"21:16:00",1
"21/01/05","21:30",0.0,4.2,86.4,1013.8,313.3,1.8,3.4,322.5,0.00,2.2,6.7,"21:23:44",1
"21/01/05","21:40",0.0,4.2,86.7,1014.0,333.3,2.1,4.4,327.4,0.00,2.2,6.7,"21:37:44",1
"21/01/05","21:50",0.0,4.6,86.3,1013.8,288.4,2.1,3.3,315.4,0.00,2.6,6.5,"21:40:32",1
"21/01/05","22:00",0.0,4.5,86.0,1013.8,310.4,1.2,2.4,297.2,0.00,2.4,6.7,"21:53:36",1
"21/01/05","22:10",0.0,4.2,85.9,1013.5,15.4,1.0,3.2,324.9,0.00,2.1,6.4,"22:08:40",1
"21/01/05","22:20",0.0,3.6,86.0,1013.3,314.3,1.8,2.6,316.2,0.00,1.5,6.5,"22:10:32",1
"21/01/05","22:30",0.0,3.5,86.5,1013.3,317.8,2.1,2.6,311.6,0.00,1.5,6.5,"22:28:48",1
"21/01/05","22:40",0.0,3.4,86.9,1013.0,282.4,1.6,2.8,320.2,0.00,1.5,6.3,"22:35:04",1
"21/01/05","22:50",0.0,3.6,87.3,1012.8,287.9,1.8,2.6,294.5,0.00,1.7,6.3,"22:47:12",1
"21/01/05","23:00",0.0,3.7,87.6,1012.8,301.6,2.0,2.9,334.7,0.00,1.9,6.4,"22:52:56",1
"21/01/05","23:10",0.0,3.6,87.8,1012.8,315.3,1.3,2.7,322.0,0.00,1.8,6.3,"23:06:16",1
"21/01/05","23:20",0.0,3.4,88.1,1012.3,274.3,1.0,1.8,263.9,0.00,1.7,6.5,"23:13:36",1
"21/01/05","23:30",0.0,3.5,88.2,1012.8,33.5,1.0,2.2,324.0,0.00,1.8,6.3,"23:28:56",1
"21/01/05","23:40",0.0,3.0,88.5,1012.6,304.7,1.6,2.7,314.5,0.00,1.3,6.1,"23:39:36",1
"21/01/05","23:50",0.0,2.7,88.7,1012.1,306.4,1.5,2.4,321.4,0.00,1.1,6.0,"23:47:28",1
"21/01/05","24:00",0.0,2.3,89.1,1012.1,311.5,2.1,3.4,325.6,0.00,0.7,6.2,"23:58:32",1
